Date String (YYYY-MM-DD hh:mm:ss) UTC,Instrument flags,Ambient pressure (hPa),Sample flow (lpm),Bypass flow (lpm),Sample temperature (°C),Ambient temperature (°C),ASC tube jacket temperature (°C),LED temperature (°C),Box temperature (°C),Sample RH (%),Span deviation,Mass concentration (μg/m³),Mass concentration (μg/m³),Mass concentration (μg/m³)
DateTimeUTC,F1_M11,P_M11,Q1_M11,Q2_M11,T1_M11,T2_M11,T3_M11,T4_M11,T5_M11,U1_M11,ZSPAN_M11,X2_M11,X0_M11,X1_M11
2021-10-12 12:00:00,,0816.0,5.00,0.00,28.7,27.6,00.0,37.9,30.4,15.7,0002.8,0008.07,0022.60,0005.70
2021-10-12 12:01:00,,0816.0,5.01,0.00,28.7,27.6,00.0,37.9,30.4,15.7,0002.9,0008.16,0021.68,0005.72
2021-10-12 12:02:00,,0816.0,4.99,0.00,28.7,27.6,00.0,37.9,30.4,15.8,0002.5,0008.27,0021.71,0005.74
2021-10-12 12:03:00,,0816.0,5.00,0.00,28.6,27.6,00.0,37.9,30.4,15.8,0002.2,0008.31,0022.23,0005.74
2021-10-12 12:04:00,,0816.0,5.01,0.00,28.7,27.6,00.0,37.8,30.4,15.8,0001.9,0008.24,0022.12,0005.75
2021-10-12 12:05:00,,0816.0,4.99,0.00,28.6,27.6,00.0,37.8,30.4,15.8,0001.9,0008.21,0021.70,0005.75
2021-10-12 12:06:00,,0816.0,5.00,0.00,28.6,27.6,00.0,37.8,30.4,15.8,0001.9,0008.21,0021.75,0005.74
2021-10-12 12:07:00,,0816.0,5.00,0.00,28.6,27.6,00.0,37.8,30.4,15.8,0001.9,0008.17,0020.81,0005.74
2021-10-12 12:08:00,,0816.0,5.00,0.00,28.6,27.6,00.0,37.8,30.3,15.9,0001.9,0008.23,0020.98,0005.74
2021-10-12 12:09:00,,0816.0,5.00,0.00,28.6,27.6,00.0,37.8,30.3,15.9,0001.9,0008.16,0020.49,0005.74
2021-10-12 12:10:00,,0815.9,4.99,0.00,28.6,27.6,00.0,37.8,30.3,15.9,0002.1,0008.10,0020.43,0005.74
2021-10-12 12:11:00,,0815.9,5.01,0.00,28.6,27.6,00.0,37.8,30.3,15.9,0002.5,0008.09,0020.26,0005.73
2021-10-12 12:12:00,,0815.9,4.98,0.00,28.6,27.6,00.0,37.8,30.3,16.0,0002.5,0008.01,0019.65,0005.73
2021-10-12 12:13:00,,0815.9,5.00,0.00,28.6,27.6,00.0,37.8,30.3,16.0,0002.6,0007.94,0019.45,0005.72
2021-10-12 12:14:00,,0815.9,5.01,0.00,28.6,27.6,00.0,37.8,30.3,16.0,0002.6,0007.91,0019.23,0005.73
2021-10-12 12:15:00,,0815.8,4.99,0.00,28.6,27.6,00.0,37.8,30.3,16.0,0003.1,0007.90,0018.76,0005.72
2021-10-12 12:16:00,,0815.9,5.00,0.00,28.6,27.6,00.0,37.8,30.3,16.1,0003.1,0007.86,0017.94,0005.73
2021-10-12 12:17:00,,0815.8,5.01,0.00,28.6,27.6,00.0,37.8,30.3,16.1,0003.4,0007.86,0017.57,0005.73
2021-10-12 12:18:00,,0815.8,4.99,0.00,28.6,27.6,00.0,37.8,30.3,16.1,0003.6,0007.84,0018.65,0005.74
2021-10-12 12:19:00,,0815.8,5.00,0.00,28.6,27.5,00.0,37.8,30.3,16.1,0003.3,0007.77,0017.91,0005.76
2021-10-12 12:20:00,,0815.8,5.00,0.00,28.6,27.5,00.0,37.8,30.3,16.2,0003.2,0007.84,0018.31,0005.78
2021-10-12 12:21:00,,0815.8,5.00,0.00,28.5,27.5,00.0,37.7,30.3,16.2,0003.3,0007.89,0019.60,0005.79
2021-10-12 12:22:00,,0815.8,5.00,0.00,28.5,27.5,00.0,37.7,30.3,16.2,0002.9,0007.86,0020.76,0005.79
2021-10-12 12:23:00,,0815.8,5.01,0.00,28.5,27.5,00.0,37.7,30.3,16.2,0003.0,0007.88,0021.95,0005.81
2021-10-12 12:24:00,,0815.8,5.00,0.00,28.5,27.5,00.0,37.7,30.3,16.3,0002.7,0007.86,0021.45,0005.83
2021-10-12 12:25:00,,0815.8,4.99,0.00,28.5,27.5,00.0,37.7,30.3,16.3,0002.9,0007.85,0021.51,0005.85
2021-10-12 12:26:00,,0815.9,5.00,0.00,28.5,27.5,00.0,37.7,30.3,16.4,0002.8,0007.88,0022.67,0005.87
2021-10-12 12:27:00,,0815.7,5.00,0.00,28.5,27.5,00.0,37.7,30.2,16.4,0002.5,0007.96,0023.37,0005.90
2021-10-12 12:28:00,,0815.7,5.00,0.00,28.5,27.5,00.0,37.7,30.3,16.4,0002.3,0007.99,0023.71,0005.93
2021-10-12 12:29:00,,0815.7,5.00,0.00,28.5,27.5,00.0,37.7,30.2,16.4,0002.0,0007.94,0022.47,0005.93
2021-10-12 12:30:00,,0815.7,5.00,0.00,28.5,27.4,00.0,37.7,30.2,16.4,0001.9,0007.92,0022.86,0005.92
2021-10-12 12:31:00,,0815.7,5.00,0.00,28.5,27.4,00.0,37.7,30.2,16.4,0002.3,0007.90,0023.63,0005.91
2021-10-12 12:32:00,,0815.7,4.99,0.00,28.5,27.4,00.0,37.7,30.2,16.4,0002.2,0007.85,0022.03,0005.90
2021-10-12 12:33:00,,0815.8,5.00,0.00,28.5,27.4,00.0,37.7,30.2,16.4,0002.5,0007.80,0021.04,0005.91
2021-10-12 12:34:00,,0815.8,5.01,0.00,28.5,27.4,00.0,37.7,30.2,16.5,0002.4,0007.80,0020.42,0005.91
2021-10-12 12:35:00,,0815.7,5.00,0.00,28.5,27.4,00.0,37.6,30.2,16.5,0002.7,0007.82,0020.46,0005.91
2021-10-12 12:36:00,,0815.7,5.01,0.00,28.5,27.4,00.0,37.6,30.2,16.5,0002.9,0007.84,0019.97,0005.91
2021-10-12 12:37:00,,0815.7,4.99,0.00,28.4,27.4,00.0,37.6,30.2,16.5,0003.0,0007.77,0018.76,0005.91
2021-10-12 12:38:00,,0815.7,5.00,0.00,28.4,27.4,00.0,37.6,30.2,16.5,0003.0,0007.74,0018.42,0005.92
2021-10-12 12:39:00,,0815.7,5.01,0.00,28.4,27.4,00.0,37.6,30.2,16.5,0003.0,0007.71,0018.72,0005.91
2021-10-12 12:40:00,,0815.7,5.00,0.00,28.4,27.4,00.0,37.6,30.2,16.5,0003.0,0007.70,0018.68,0005.90
2021-10-12 12:41:00,,0815.7,4.99,0.00,28.4,27.4,00.0,37.6,30.2,16.5,0003.1,0007.77,0018.95,0005.89
2021-10-12 12:42:00,,0815.7,5.00,0.00,28.4,27.4,00.0,37.6,30.2,16.5,0002.8,0007.84,0019.22,0005.89
2021-10-12 12:43:00,,0815.7,5.01,0.00,28.4,27.4,00.0,37.6,30.2,16.5,0002.8,0007.84,0019.57,0005.90
2021-10-12 12:44:00,,0815.7,5.00,0.00,28.4,27.4,00.0,37.6,30.1,16.5,0002.8,0007.87,0019.27,0005.90
2021-10-12 12:45:00,,0815.7,4.99,0.00,28.4,27.4,00.0,37.6,30.2,16.5,0002.8,0007.87,0019.78,0005.90
2021-10-12 12:46:00,,0815.7,5.01,0.00,28.4,27.4,00.0,37.6,30.2,16.5,0002.6,0007.82,0020.65,0005.89
2021-10-12 12:47:00,,0815.7,4.99,0.00,28.4,27.4,00.0,37.6,30.2,16.5,0002.4,0007.87,0021.22,0005.90
2021-10-12 12:48:00,,0815.7,5.01,0.00,28.4,27.4,00.0,37.6,30.2,16.5,0002.1,0007.91,0021.86,0005.89
2021-10-12 12:49:00,,0815.6,5.00,0.00,28.4,27.4,00.0,37.6,30.2,16.5,0002.0,0007.90,0021.55,0005.88
2021-10-12 12:50:00,,0815.8,4.99,0.00,28.4,27.4,00.0,37.6,30.2,16.5,0002.3,0007.88,0021.25,0005.88
2021-10-12 12:51:00,,0816.0,5.00,0.00,28.4,27.4,00.0,37.6,30.2,16.5,0002.6,0007.91,0021.53,0005.90
2021-10-12 12:52:00,,0816.1,4.99,0.00,28.4,27.3,00.0,37.6,30.1,16.5,0002.5,0007.96,0021.16,0005.93
2021-10-12 12:53:00,,0816.0,5.01,0.00,28.4,27.3,00.0,37.6,30.1,16.5,0002.6,0007.96,0020.40,0005.96
2021-10-12 12:54:00,,0816.1,5.01,0.00,28.4,27.3,00.0,37.6,30.1,16.5,0002.5,0007.97,0020.64,0005.98
2021-10-12 12:55:00,,0816.0,4.99,0.00,28.4,27.3,00.0,37.6,30.2,16.5,0002.4,0007.98,0020.70,0005.99
2021-10-12 12:56:00,,0815.8,5.00,0.00,28.4,27.3,00.0,37.6,30.2,16.5,0002.3,0008.05,0020.03,0006.02
2021-10-12 12:57:00,,0815.5,5.00,0.00,28.4,27.3,00.0,37.6,30.1,16.5,0002.4,0008.10,0019.24,0006.06
2021-10-12 12:58:00,,0815.5,5.00,0.00,28.4,27.3,00.0,37.5,30.1,16.5,0002.6,0008.17,0019.78,0006.09
2021-10-12 12:59:00,,0815.5,5.00,0.00,28.4,27.3,00.0,37.5,30.2,16.5,0002.6,0008.27,0020.92,0006.15
